Flag for United Kingdom Weather past 2 weeks in Inverness, Scotland, United Kingdom

Now
57 °F

Passing clouds.


Feels Like: 55 °F
Forecast: 56 / 65 °F
Wind: 12 mph from Southwest

Location: Inverness / Dalcross

Current Time: Jul 30, 2014 at 12:25:55 AM

Latest Report: Jul 29, 2014 at 11:50 PM


Visibility: N/A

Pressure: 29.83 "Hg

Humidity: 82%

Dew point: 52 °F

Location of InvernessLocation

Historic Weather in Inverness — Graph

°F

Inverness temperature yesterday

Maximum temperature yesterday: 66 °F (at 9:20 AM)
Minimum temperature yesterday: 57 °F (at 2:50 AM)
Average temperature yesterday: 62 °F

Past Weeks' High & Low Weather Summary

 TemperatureHumidityPressure
High75 °F (Jul 25, 12:20 PM)100% (Jul 16, 4:50 AM)30.30 "Hg (Jul 16, 4:50 AM)
Low46 °F (Jul 18, 4:50 AM)50% (Jul 18, 2:50 PM)29.65 "Hg (Jul 14, 11:20 PM)
Average62 °F84%30.02 "Hg
* Reported Jul 14 11:20 PM — Jul 29 11:20 PM, Inverness, Weather by CustomWeather, © 2014

Note: Actual official high and low records may vary slightly from our data, if they occured in-between our weather recording intervals... More about our weather records

Advertising

Inverness weather history for previous 24 hours

 ConditionsComfort  
Time TempWeatherWind HumidityBarometerVisibility
11:20 PM
Jul 29
57 °FPassing clouds.16 mph82%29.83 "HgN/A
10:50 PM59 °FPassing clouds.16 mph77%29.83 "HgN/A
10:20 PM59 °FPartly sunny.15 mph82%29.83 "HgN/A
9:50 PM59 °FBroken clouds.13 mph82%29.83 "HgN/A
9:20 PM59 °FBroken clouds.15 mph82%29.83 "HgN/A
8:50 PM61 °FScattered showers. Broken clouds.13 mph77%29.83 "HgN/A
8:20 PM61 °FScattered showers. Partly sunny.9 mph77%29.86 "HgN/A
7:50 PM61 °FScattered clouds.17 mph77%29.86 "HgN/A
7:20 PM63 °FScattered clouds.16 mph73%29.86 "HgN/A
6:50 PM63 °FPartly sunny.17 mph73%29.86 "HgN/A
6:20 PM63 °FPartly sunny.15 mph68%29.86 "HgN/A
5:50 PM63 °FBroken clouds.14 mph73%29.86 "HgN/A
5:20 PM64 °FPartly sunny.14 mph68%29.86 "HgN/A
4:50 PM64 °FScattered clouds.16 mph64%29.86 "HgN/A
4:20 PM63 °FScattered clouds.18 mph68%29.89 "HgN/A
3:50 PM64 °FScattered clouds.18 mph64%29.86 "HgN/A
3:20 PM63 °FScattered clouds.15 mph68%29.89 "HgN/A
2:50 PM64 °FScattered showers. Scattered clouds.15 mph68%29.89 "HgN/A
2:20 PM64 °FScattered showers. Scattered clouds.15 mph68%29.89 "HgN/A
1:50 PM64 °FScattered showers. Broken clouds.18 mph68%29.89 "HgN/A
1:20 PM64 °FScattered showers. Broken clouds.13 mph68%29.89 "HgN/A
12:50 PM64 °FPartly sunny.16 mph64%29.89 "HgN/A
12:20 PM64 °FPartly sunny.16 mph73%29.89 "HgN/A
11:50 AM66 °FPartly sunny.16 mph64%29.89 "HgN/A
11:20 AM64 °FScattered showers. Partly sunny.16 mph68%29.89 "HgN/A
10:50 AM64 °FPartly sunny.16 mph64%29.89 "HgN/A
10:20 AM66 °FScattered clouds.17 mph64%29.89 "HgN/A
9:50 AM66 °FScattered clouds.20 mph60%29.89 "HgN/A
9:20 AM66 °FScattered clouds.18 mph68%29.89 "HgN/A
8:50 AM63 °FScattered clouds.16 mph77%29.89 "HgN/A
8:20 AM61 °FScattered clouds.15 mph83%29.89 "HgN/A
7:50 AM61 °FScattered clouds.12 mph88%29.89 "HgN/A
7:20 AM61 °FScattered clouds.13 mph83%29.89 "HgN/A
6:50 AM59 °FScattered clouds.9 mph88%29.89 "HgN/A
6:20 AM59 °FScattered clouds.8 mph82%29.89 "HgN/A
5:50 AM59 °FPassing clouds.9 mph82%29.89 "HgN/A
5:20 AM59 °FPassing clouds.9 mph82%29.92 "HgN/A
4:50 AM59 °FPassing clouds.13 mph82%29.92 "HgN/A
3:50 AM59 °FPassing clouds.10 mph82%29.95 "HgN/A
3:20 AM59 °FPassing clouds.10 mph82%29.95 "HgN/A
2:50 AM57 °FPassing clouds.7 mph88%29.95 "HgN/A
2:20 AM59 °FPassing clouds.7 mph82%29.98 "HgN/A
1:50 AM59 °FCool.6 mph82%29.98 "HgN/A
1:20 AM59 °FPassing clouds.6 mph82%29.98 "HgN/A
12:50 AM59 °FPassing clouds.7 mph88%29.98 "HgN/A
12:20 AM59 °FCool.7 mph88%30.01 "HgN/A
Weather by CustomWeather, © 2014

See weather overviewHow to use our weather pages